Table of 264 clipart with no tags. (Librarian View)

id upload_name upload_date user_name upload_description upload_tags filename nsfw
285333 conclusion 2017-08-22 16:36:00 ishatiwari 1503419760.svg 0
285266 faq 2017-08-21 10:53:26 hana_mr faq.svg 0
285265 ok 2017-08-21 10:43:30 hana_mr 1503312210.svg 0
285172 DB 2017-08-17 21:57:31 morozov 1503007051.svg 0
284859 splat 2017-08-13 05:41:37 GoAnimateYes CaillouNo VGCP 1502602897.svg 0
284633 Stars 2017-08-09 01:13:31 GoAnimateYes CaillouNo VGCP Stars.svg 0
284334 4T 2017-08-04 11:38:47 btj51q2 Fourth wall 4stena.svg 0
284070 teste 2017-07-31 21:53:46 plinio 1501538026.svg 1
284069 teste 2017-07-31 21:53:41 plinio 1501538021.svg 1
284068 logo_superticket 2017-07-31 21:53:26 plinio 1501538006.svg 1
284067 logo_superticket 2017-07-31 21:53:13 plinio 1501537993.svg 1
283724 kingaroos 2017-07-26 01:16:16 GoAnimateYes CaillouNo VGCP 1501031776.svg 0
283695 Relationship between session, graph and device in tensorflow 2017-07-25 13:20:55 kindlychung Cannot guarantee the correctness. If anything is wrong, please let me know. tensorflow_session_graph_device.svg 0
283646 Vintage 2017-07-24 15:05:10 urielcast @urielcast 1500908710.svg 0
283535 Happy heart 2017-07-22 13:50:35 DimpleMathew 1500731435.svg 0
283534 Happy heart 2017-07-22 13:50:31 DimpleMathew Happy-heart.svg 0
283401 splatity splat 2017-07-19 21:19:17 GoAnimateYes CaillouNo VGCP 1500499157.svg 0
283400 2 circles 2017-07-19 20:39:36 GoAnimateYes CaillouNo VGCP 1500496776.svg 0
283261 Ornament 2017-07-18 05:02:05 Ninjaart1993 1500354125.svg 0
283215 promissory note in Chinese 2017-07-17 06:58:45 linhuawang1985 1500274725.svg 0
283081 conceptarch 2017-07-13 15:14:03 margiradu concept-arch.svg 0
283054 splat 2017-07-12 22:00:08 GoAnimateYes CaillouNo VGCP 1499896808.svg 0
282945 Blue mana 2017-07-11 20:44:29 JekaiWarrior U.svg 0
282942 black mana 2017-07-11 20:43:17 JekaiWarrior 1499805797.svg 0
282893 myboard 2017-07-11 09:04:25 Messiaen 1499763865.svg 0
282892 myboard 2017-07-11 09:04:14 Messiaen 1499763854.svg 1
282891 myboard01 2017-07-11 09:02:57 Messiaen go-board-19.svg 0
282203 beplay db 2017-06-28 02:09:55 diegoduncan21 A flow chart beplay.svg 1
282167 QMC media branding 2017-06-27 08:03:08 QMC.media QMC_media_LTD_BRANDING2.svg 0
282135 rplot 2017-06-26 15:14:58 toto1219 1498490098.svg 0
282068 prvrn 2017-06-24 16:58:24 btj51q2 revolve_color.svg 0
282011 grupo compaƱeros 2017-06-23 14:46:43 michaeldavidortiz8993 WhatsApp_Image_2017-06-07_at_11_37_40_AM.svg 0
281915 Cross 2017-06-21 20:39:39 Mc cross.svg 0
281864 k8s node 2017-06-20 00:53:33 octaviorichter module_03_nodes.svg 0
281831 release-lc 2017-06-19 08:45:05 RichardC release-lc.svg 0
281830 changeset-lc 2017-06-19 08:43:39 RichardC changeset-lc.svg 0
281669 workflow 2017-06-16 09:19:39 RichardC workflow.svg 0
281668 slot 2017-06-16 08:43:52 RichardC slot.svg 0
281667 television 2017-06-16 08:30:06 RichardC television.svg 0
281666 rule 2017-06-16 07:55:49 RichardC 1497599749.svg 0
281665 rule 2017-06-16 07:55:49 RichardC rule.svg 0
281632 form 2017-06-15 15:51:30 RichardC form.svg 0
281631 user 2017-06-15 15:37:54 RichardC 1497541074.svg 0
281630 role 2017-06-15 15:33:37 RichardC role.svg 0
281629 server 2017-06-15 15:30:38 RichardC 1497540638.svg 0
281627 ci-variable 2017-06-15 15:26:30 RichardC ci-variable.svg 0
281626 job 2017-06-15 15:23:40 RichardC job.svg 0
281622 topic 2017-06-15 15:09:56 RichardC topic.svg 0
281621 service-ci-invoke 2017-06-15 15:04:53 RichardC service-ci-invoke.svg 0
281620 state 2017-06-15 14:49:11 RichardC state.svg 0
281619 ci-bl 2017-06-15 14:36:37 RichardC ci-bl.svg 0
281612 Schema SSO 2017-06-15 08:34:37 Cow-B SchemaSSO.svg 0
281504 BPM event 2017-06-13 14:51:49 elconomeno@email.com bpm_event.svg 0
281455 son 2017-06-12 19:52:57 GoAnimateYes CaillouNo VGCP 1497297177.svg 0
281454 father 2017-06-12 19:51:48 GoAnimateYes CaillouNo VGCP 1497297108.svg 0
281316 logo 2017-06-10 07:37:47 saquibzeya 1497080267.svg 0
280977 sample1 2017-06-05 16:09:12 srikanth.karana zerosmiley.svg 0
279909 evaluacion 2017-05-18 20:37:27 jrodriguez 1495139847.svg 0
279908 evaluacion 2017-05-18 20:37:05 jrodriguez Evaluacion_svg.svg 1
279859 spatialcode1 2017-05-17 15:48:10 Colin_Davis spatial_code-state.svg 0
279703 table 2017-05-15 13:24:55 elconomeno@email.com table_symbol.svg 0
279530 kamos 2017-05-11 21:04:47 tsepoylas fulllogo1.svg 0
279521 lupa 2017-05-11 17:40:19 marcoscl 1494524419.svg 0
279453 mapaDeNiveles 2017-05-10 11:55:05 dvelas26 MapaDeNiveles.svg 0
279440 cheer 2017-05-09 20:58:19 lacydyson 1494363499.svg 0
279224 PH 2017-05-06 14:36:18 spectorp PH_plots.svg 0
279025 white 2017-05-03 08:15:05 rlcpuia 1493799305.svg 1
278987 no u 2017-05-02 22:02:57 SpaceShuttleFan Projet-Acrostique.svg 1
278669 ClockworkOrange 2017-04-26 15:54:04 btj51q2 orange_clock.svg 0
278483 uralresurs 2017-04-24 03:56:33 dc128 uralresusrs1.svg 0
278061 Group 2017-04-18 14:29:47 Sascha545 Drawing-4.svg 0
278042 02 2017-04-17 23:27:14 gbrown 1492471634.svg 0
277647 la 2017-04-12 01:19:35 redditAdmin YdZbBvJ.svg 0
277316 Wallimag 2017-04-07 18:00:20 Majkusz wallimage.svg 0
277126 Kanna Chan 2017-04-05 13:31:05 irfanow Kanna chan 1491399065.svg 1
276691 Arios art. 2017-03-30 15:54:47 Danil_Stotckii 1490889287.svg 0
276687 Arios art 2017-03-30 15:47:43 Danil_Stotckii Arios_art.svg 0
276576 Brush - Temp 2017-03-28 14:47:25 matthewdingley ic_brush_black_24px.svg 0
276573 flow 2017-03-28 13:43:14 nabil Flowchart.svg 0
276523 Pencil 2017-03-27 20:05:18 johndeg 1490645118.svg 0
276319 Open Clipart Dutchman 2017-03-24 13:35:45 cschreuders Open-Clipart-Dutchman.svg 0
276316 Ying Yang 2017-03-24 10:18:07 OlivierLB ying-yang-2.svg 0
276313 Delete Me 2017-03-24 08:01:14 jeremyn 5.1-User-App-Main-Screen.svg 0
276203 Test 2017-03-22 18:36:37 diegodotta 1490207797.svg 0
275581 street 2017-03-15 18:04:34 abbygail 7076b232-a654-434d-819c-833745d873ed.svg 0
275570 Nuoli 2017-03-15 10:05:39 Pirre 1489572339.svg 0
275568 SERVER, 2017-03-15 08:33:54 QMC.media SERVER.svg 0
275521 Money 2017-03-14 19:10:58 lexilee 1489518658.svg 0
275513 Affinity Category 2017-03-14 18:20:15 slam Affinity_Category_Sessions_chartbuilder.svg 0
275504 Bricks Blue Green 2017-03-14 16:00:17 mcgrath.timothy Bricks Blue Green Re-Upload-multiple-files-request-2017031415.svg 0
275503 Bricks Blue Red 2017-03-14 15:50:00 mcgrath.timothy Brick Toy Blue Red Upload-multiple-files-request-10-2017031438.svg 0
275502 Bricks Green Blue 2017-03-14 15:49:58 mcgrath.timothy Bricks Green Blue Upload-multiple-files-request-9-2017031438.svg 0
275501 Bricks Blue Yellow 2017-03-14 15:49:56 mcgrath.timothy Brick Toy Blue Yellow Upload-multiple-files-request-8-2017031438.svg 0
275500 Bricks Green Red 2017-03-14 15:49:54 mcgrath.timothy Brick Toy Green Red Upload-multiple-files-request-7-2017031438.svg 0
275499 Bricks Green Yellow 2017-03-14 15:49:52 mcgrath.timothy Brick Toy Green Yellow Upload-multiple-files-request-6-2017031438.svg 0
275498 Bricks Red Green 2017-03-14 15:49:50 mcgrath.timothy Brick Toy Red Green Upload-multiple-files-request-5-2017031438.svg 0
275497 Bricks Yellow Blue 2017-03-14 15:49:48 mcgrath.timothy Brick Toy Yellow Blue Upload-multiple-files-request-4-2017031438.svg 0
275496 Bricks Red Blue 2017-03-14 15:49:46 mcgrath.timothy Brick Toy Red Blue Upload-multiple-files-request-3-2017031438.svg 0
275495 Bricks Yellow Red 2017-03-14 15:49:44 mcgrath.timothy Brick Toy Yellow Red Upload-multiple-files-request-2-2017031438.svg 0
275494 Bricks Red Yellow 2017-03-14 15:49:42 mcgrath.timothy Brick Toy Red Yellow Upload-multiple-files-request-1-2017031438.svg 0